Location: Evensen
(52.5775°N, 9.5258°E)
Time: 10:26:16
(UTC+00:00)

SPOT 3 Rocket - Pass Details

Date: 15 May 2026
Orbit: 774 x 790 km, 98.5° (Epoch: 6 June)

Event Time Altitude Azimuth Distance (km) Brightness Sun altitude
Exits shadow 21:09:24 11° 188° (S) 2,261 5.5 -13.1°
Maximum altitude 21:14:10 47° 261° (W) 1,029 4.3 -13.5°
Drops below altitude 10° 21:19:08 10° 335° (NNW) 2,336 7.5 -13.9°
Sets 21:21:33 0° 342° (NNW) 3,267 8.6 -14.0°
